METEOR M2-4

Satellite information

Favourite Embed

Satellite Type and Status

PAYLOADIN ORBIT

Key statistics

Satellite METEOR M2-4 at a glance.

Uptime

603

Days in orbit

Revolutions

≈ 14.2

Per day

Orbit

SSO

Sun Synchronous Orbit

Inclination

98.7

Latest

Satellite identification and parameters

Extended collection of information and parameters for METEOR M2-4.

Object identification

Identified? True

Debris? False

Object name: METEOR M2-4

International designator: 2024-039A

Object number (NORAD): 59051

Object ID (CCSDS): 59051

Country: COMMONWEALTH OF INDEPENDENT STATES (CIS)

Current information (Y/N): Y

RCS size: LARGE

Orbital parameters

Period: 101.238 minutes

Inclination: 98.6682 deg

SMA: 7195.42 km

Apoapsis: 822.923 km

Periapsis: 811.646 km

RAAN: 254.6125 deg

Eccentricy: 0.00078362

Argument of periapsis: 127.8072 deg

Mean anomaly: 232.3816 deg

Mean motion: 14.22389552 rev/day

Mean motion (dot): 0.00000068 rev/day2

B* drag term: 0.000050232292 1/REarth

Two-line elements (TLE)

Creation date: Oct. 24, 2025, 2:48 a.m.

Reference frame: TEME

Reference center: EARTH

Epoch: Oct. 23, 2025, 9:38 p.m. UTC

TLE line 0: 0 METEOR M2-4

TLE line 1: 1 59051U 24039A 25296.90183011 .00000068 00000-0 50232-4 0 9995

TLE line 2: 2 59051 98.6682 254.6125 0007836 127.8072 232.3816 14.22389552 85679

Live tracking on map

Real-time ground track for satellite METEOR M2-4.

In-orbit conjunctions

There are no conjunctions computed for METEOR M2-4, at the moment. Check back to stay up to date, as we update our databases every day.

Go to all conjunctions

Associated space launch

Meteor-M satellites are a new generation of Russian meteorological satellites. Hitchhiking Payloads: SITRO-AIS 13-28, Zorkiy-2M-2, Pars 1 (Iran).

METEOR M2-4 was lifted into orbit during the mission ‘Soyuz 2.1b/Fregat-M | Meteor-M No.2-4 & others’, on board a Soyuz 2.1b/Fregat-M space rocket.

The launch took place on Feb. 29, 2024, 5:43 a.m. from Cosmodrome Site 1S.

For more information about the launch, click the button.

Launch to space Soyuz 2.1b/Fregat-M | Meteor-M No.2-4 & others
Soyuz 2.1b/Fregat-M | Meteor-M No.2-4 & others

Agency: Russian Federal Space Agency (ROSCOSMOS)

Status: Launch Successful

Launch date: Feb. 29, 2024, 5:43 a.m. UTC

Rocket: Soyuz 2.1b/Fregat-M

Launch pad: Cosmodrome Site 1S

Location: Vostochny Cosmodrome, Siberia, Russian Federation

...

Latest news about this satellite

There are no fresh news available about this satellite. Check back as we update our databases every day.


Newsletter sign-up

Weekly statistics, charts and insights to help you stay on top of the space industry.